FW1764 Weather Reports


time (UTC)temp
C
wind
direction
speed
KPH
gust
KPH
rain 1hr
cm
rain 24hr
cm
rain mn
cm
humidity
%
barometer
mb
20260906140009 25 76 0.0 3.2 0.00 0.00 0.00 81 1015.7
20260906134501 25 25 0.0 6.4 0.00 0.00 0.00 82 1015.7
20260906133127 25 6 0.0 1.6 0.00 0.00 0.00 83 1015.8
20260906131614 25 223 0.0 1.6 0.00 0.00 0.00 84 1015.8
20260906130105 24 346 0.0 0.0 0.00 0.00 0.00 85 1015.7
20260906124525 23 36 0.0 3.2 0.00 0.00 0.00 86 1015.7
20260906123022 23 41 0.0 0.0 0.00 0.00 0.00 86 1015.4
20260906121522 23 49 0.0 0.0 0.00 0.00 0.00 86 1015.2
20260906120019 23 54 0.0 0.0 0.00 0.00 0.00 86 1015.2
20260906114517 23 54 0.0 0.0 0.00 0.00 0.00 86 1014.9
20260906113017 23 54 0.0 0.0 0.00 0.00 0.00 86 1015.0
20260906111513 23 53 0.0 0.0 0.00 0.00 0.00 86 1014.8
20260906110011 24 53 0.0 1.6 0.00 0.00 0.00 86 1014.6
20260906104511 24 205 0.0 0.0 0.00 0.00 0.00 86 1014.5
20260906103010 24 205 0.0 0.0 0.00 0.00 0.00 87 1014.3
20260906101539 24 205 0.0 0.0 0.00 0.00 0.00 87 1014.3
20260906100040 23 205 0.0 0.0 0.00 0.00 0.00 87 1014.3
20260906094535 23 206 0.0 0.0 0.00 0.00 0.00 86 1014.1
20260906093043 23 206 0.0 0.0 0.00 0.00 0.00 86 1013.9
20260906091531 23 206 0.0 0.0 0.00 0.00 0.00 86 1014.0
20260906090030 23 206 0.0 0.0 0.00 0.00 0.00 85 1013.8
20260906084526 23 206 0.0 0.0 0.00 0.00 0.00 85 1013.7
20260906083025 23 206 0.0 0.0 0.00 0.00 0.00 85 1013.7
20260906081527 23 206 0.0 0.0 0.00 0.00 0.00 85 1013.6
20260906080023 23 206 0.0 0.0 0.00 0.00 0.00 84 1013.4
20260906074518 23 206 0.0 0.0 0.00 0.00 0.00 84 1013.5
20260906073016 23 206 0.0 0.0 0.00 0.00 0.00 84 1013.6
20260906071515 23 206 0.0 0.0 0.00 0.00 0.00 84 1013.7
20260906070014 23 206 0.0 0.0 0.00 0.00 0.00 83 1013.7
20260906064517 23 206 0.0 0.0 0.00 0.00 0.00 83 1013.9
20260906063010 23 206 0.0 0.0 0.00 0.00 0.00 83 1013.9
20260906061509 23 206 0.0 0.0 0.00 0.00 0.00 83 1014.0
20260906060013 24 206 0.0 0.0 0.00 0.00 0.00 82 1014.0
20260906054505 24 206 0.0 0.0 0.00 0.00 0.00 82 1014.0
20260906053013 24 206 0.0 0.0 0.00 0.00 0.00 82 1014.0
20260906051502 24 206 0.0 0.0 0.00 0.00 0.00 81 1014.0
20260906050100 24 206 0.0 0.0 0.00 0.00 0.00 81 1013.9
20260906044557 25 206 0.0 0.0 0.00 0.00 0.00 81 1013.6
20260906043058 25 206 0.0 0.0 0.00 0.00 0.00 80 1013.7
20260906041557 25 206 0.0 0.0 0.00 0.00 0.00 80 1013.6
20260906040056 25 206 0.0 0.0 0.00 0.00 0.00 79 1013.5
20260906034530 25 206 0.0 0.0 0.00 0.00 0.00 79 1013.4
20260906033030 25 206 0.0 0.0 0.00 0.00 0.00 79 1013.4
20260906031558 25 206 0.0 0.0 0.00 0.00 0.00 78 1013.2
20260906030056 26 206 0.0 0.0 0.00 0.00 0.00 77 1013.1
20260906024552 26 206 0.0 0.0 0.00 0.00 0.00 77 1013.0
20260906023053 26 206 0.0 0.0 0.00 0.00 0.00 76 1013.0
20260906021557 26 206 0.0 0.0 0.00 0.00 0.00 76 1012.8
20260906020054 27 202 0.0 0.0 0.00 0.00 0.00 75 1012.6
20260906014550 27 203 0.0 0.0 0.00 0.00 0.00 74 1012.2
20260906013049 27 203 0.0 0.0 0.00 0.00 0.00 73 1012.0
20260906011602 28 202 0.0 0.0 0.00 0.00 0.00 72 1011.8
20260906010048 28 202 0.0 0.0 0.00 0.00 0.00 70 1011.6
20260906004546 29 202 0.0 0.0 0.00 0.00 0.00 68 1011.4
20260906003035 30 202 0.0 0.0 0.00 0.00 0.00 66 1011.4
20260906001517 30 202 0.0 0.0 0.00 0.00 0.00 64 1011.5
20260906000046 31 202 0.0 0.0 0.00 0.00 0.00 62 1011.5
20260905234546 32 202 0.0 1.6 0.00 0.00 0.00 59 1011.9
20260905233103 32 224 0.0 0.0 0.00 0.00 0.00 57 1011.8
20260905231552 33 211 0.0 1.6 0.00 0.00 0.00 55 1011.7
20260905230046 33 230 0.0 3.2 0.00 0.00 0.00 53 1011.4
20260905224604 36 192 0.0 9.7 0.00 0.00 0.00 48 1011.8
20260905223039 37 85 0.0 3.2 0.00 0.00 0.00 45 1011.4
20260905221541 37 236 0.0 4.8 0.00 0.00 0.00 44 1011.3
20260905220045 37 13 0.0 1.6 0.00 0.00 0.00 44 1011.2
20260905214540 37 205 0.0 1.6 0.00 0.00 0.00 44 1011.1
20260905213036 37 114 0.0 1.6 0.00 0.00 0.00 46 1011.1
20260905211534 37 230 0.0 1.6 0.00 0.00 0.00 44 1011.3
20260905210034 37 359 0.0 4.8 0.00 0.00 0.00 41 1011.2
20260905204532 37 149 0.0 0.0 0.00 0.00 0.00 41 1011.5
20260905203012 37 169 0.0 1.6 0.00 0.00 0.00 43 1011.5
20260905201519 38 39 0.0 8.0 0.00 0.00 0.00 40 1011.7
20260905200110 38 112 0.0 3.2 0.00 0.00 0.00 41 1011.8
20260905194520 38 23 0.0 3.2 0.00 0.00 0.00 41 1012.2
20260905193119 38 25 0.0 8.0 0.00 0.00 0.00 42 1012.3
20260905191550 37 58 0.0 1.6 0.00 0.00 0.00 43 1012.5
20260905190104 37 274 0.0 3.2 0.00 0.00 0.00 45 1012.7
20260905184605 38 304 0.0 6.4 0.00 0.00 0.00 43 1012.8
20260905183045 38 119 0.0 6.4 0.00 0.00 0.00 43 1012.9
20260905181545 37 354 1.6 6.4 0.00 0.00 0.00 44 1013.2
20260905180042 37 359 0.0 1.6 0.00 0.00 0.00 44 1013.3
20260905174550 38 155 0.0 3.2 0.00 0.00 0.00 43 1013.3
20260905173040 38 78 0.0 1.6 0.00 0.00 0.00 43 1013.5
20260905171537 39 258 0.0 3.2 0.00 0.00 0.00 42 1013.6
20260905170037 38 270 0.0 9.7 0.00 0.00 0.00 45 1013.8
20260905164535 40 62 0.0 3.2 0.00 0.00 0.00 43 1014.2
20260905163028 39 137 0.0 6.4 0.00 0.00 0.00 46 1014.3
20260905161524 38 179 0.0 8.0 0.00 0.00 0.00 46 1014.4
20260905160022 37 15 0.0 3.2 0.00 0.00 0.00 48 1014.6
20260905154515 37 193 1.6 8.0 0.00 0.00 0.00 50 1014.7
20260905153010 36 158 0.0 4.8 0.00 0.00 0.00 52 1014.6
20260905151509 36 134 0.0 6.4 0.00 0.00 0.00 53 1014.6
20260905150004 35 191 1.6 6.4 0.00 0.00 0.00 57 1014.6
20260905144601 33 174 0.0 3.2 0.00 0.00 0.00 64 1014.7
20260905143055 32 173 0.0 4.8 0.00 0.00 0.00 65 1014.6
20260905141558 30 183 0.0 9.7 0.00 0.00 0.00 71 1014.6